Simultaneous Nadir Overpasses (SNOs) Predictions

Prediction of SNOs between FY3D and METOP-C Satellite Orbit:

Table of predicted SNOs for the next 14.0 days since TLE Epoch: 4/2/2022
Index Date (FY3D) Time (FY3D) Lat,Lon (FY3D) SZA (FY3D ) Date (METOP-C) Time (METOP-C) Lat,Lon (METOP-C) SZA (METOP-C ) Distance(km) Time Diff (sec)
1 04/04/2022 19:10:12 -74.55, 65.26 111.29 04/04/2022 19:11:18 -74.50, 68.29 111.44 90.02 66
2 04/04/2022 20:00:53 74.31,-126.80 68.44 04/04/2022 20:02:02 74.27,-124.97 68.33 55.19 69
3 04/04/2022 20:51:35 -74.19, 40.83 111.71 04/04/2022 20:52:46 -74.14, 42.02 111.81 36.68 71
4 04/04/2022 21:42:17 73.95,-151.25 68.02 04/04/2022 21:43:31 73.91,-151.22 67.97 4.33 74
5 04/04/2022 22:33:01 -73.93, 16.11 112.02 04/04/2022 22:34:12 -73.92, 16.14 112.04 1.13 71
6 04/04/2022 23:23:48 73.93,-176.58 67.97 04/04/2022 23:24:52 73.94,-176.49 67.97 3.28 64
7 04/05/2022 00:14:32 -73.90, -9.22 112.07 04/05/2022 00:15:34 -73.90, -9.25 112.09 0.96 62
8 04/05/2022 01:05:19 73.90, 158.09 67.92 04/05/2022 01:06:14 73.92, 158.12 67.92 1.77 55
9 04/05/2022 01:56:03 -73.88, -34.55 112.12 04/05/2022 01:56:56 -73.88, -34.64 112.13 2.81 53
10 04/05/2022 02:46:50 73.88, 132.76 67.87 04/05/2022 02:47:36 73.90, 132.73 67.87 1.66 46
11 04/05/2022 03:37:35 -73.91, -59.99 112.12 04/05/2022 03:38:17 -73.91, -59.91 112.13 2.70 42
12 04/05/2022 04:28:21 73.86, 107.43 67.82 04/05/2022 04:28:58 73.88, 107.34 67.83 3.10 37
13 04/05/2022 05:19:06 -73.89, -85.32 112.17 04/05/2022 05:19:39 -73.89, -85.30 112.18 0.82 33
14 04/05/2022 06:09:53 73.89, 81.98 67.82 04/05/2022 06:10:19 73.90, 82.07 67.83 3.17 26
15 04/05/2022 07:00:37 -73.87,-110.65 112.22 04/05/2022 07:01:01 -73.87,-110.69 112.22 1.14 24
16 04/05/2022 07:51:24 73.87, 56.65 67.77 04/05/2022 07:51:41 73.88, 56.68 67.78 1.79 17
17 04/05/2022 08:42:08 -73.85,-135.98 112.27 04/05/2022 08:42:23 -73.85,-136.08 112.27 3.03 15
18 04/05/2022 09:32:55 73.85, 31.33 67.72 04/05/2022 09:33:03 73.86, 31.29 67.74 1.89 8
19 04/05/2022 10:23:40 -73.88,-161.43 112.27 04/05/2022 10:23:44 -73.87,-161.35 112.27 2.44 4
20 04/05/2022 11:14:26 73.83, 6.00 67.67 04/05/2022 11:14:25 73.84, 5.90 67.69 3.33 1
21 04/05/2022 12:05:11 -73.85, 173.24 112.32 04/05/2022 12:05:06 -73.85, 173.26 112.32 0.54 5
22 04/05/2022 12:55:58 73.85, -19.45 67.67 04/05/2022 12:55:46 73.87, -19.37 67.69 3.09 12
23 04/05/2022 13:46:42 -73.83, 147.92 112.37 04/05/2022 13:46:28 -73.83, 147.87 112.36 1.36 14
24 04/05/2022 14:37:29 73.83, -44.78 67.63 04/05/2022 14:37:08 73.85, -44.76 67.64 1.84 21
25 04/05/2022 15:28:13 -73.81, 122.59 112.42 04/05/2022 15:27:50 -73.81, 122.48 112.41 3.25 23
26 04/05/2022 16:19:00 73.81, -70.11 67.58 04/05/2022 16:18:30 73.83, -70.15 67.60 2.09 30
27 04/05/2022 17:09:45 -73.84, 97.14 112.41 04/05/2022 17:09:11 -73.84, 97.21 112.41 2.21 34
28 04/05/2022 18:00:31 73.79, -95.44 67.53 04/05/2022 17:59:52 73.81, -95.54 67.55 3.53 39
29 04/05/2022 18:51:16 -73.82, 71.81 112.46 04/05/2022 18:50:33 -73.82, 71.82 112.46 0.33 43
30 04/05/2022 19:42:03 73.82,-120.89 67.53 04/05/2022 19:41:13 73.84,-120.81 67.55 3.02 50
31 04/05/2022 20:32:47 -73.80, 46.48 112.51 04/05/2022 20:31:55 -73.80, 46.43 112.50 1.58 52
32 04/05/2022 21:23:34 73.80,-146.22 67.48 04/05/2022 21:22:35 73.81,-146.20 67.50 1.90 59
33 04/05/2022 22:14:18 -73.78, 21.15 112.56 04/05/2022 22:13:17 -73.78, 21.04 112.55 3.46 61
34 04/05/2022 23:05:05 73.78,-171.55 67.43 04/05/2022 23:03:57 73.79,-171.59 67.46 2.28 68
35 04/05/2022 23:55:50 -73.80, -4.30 112.56 04/05/2022 23:54:38 -73.81, -4.23 112.55 2.01 72
36 04/06/2022 00:46:34 73.66, 163.36 67.28 04/06/2022 00:45:21 73.67, 162.79 67.32 18.04 73
37 04/06/2022 01:37:17 -73.59, -29.15 112.82 04/06/2022 01:36:04 -73.59, -30.09 112.78 29.24 73
38 04/06/2022 02:27:58 73.29, 138.84 66.86 04/06/2022 02:26:50 73.30, 136.60 66.95 71.46 68
39 04/06/2022 03:18:40 -73.17, -53.58 113.29 04/06/2022 03:17:33 -73.22, -56.26 113.14 86.38 67



Historial Predications of SNOs between FY3D and METOP-C
